JCSAT-5A

Last updated on Sun Jul 06 2025 00:02:42 GMT+0000 (Coordinated Universal Time)

1 29045U 06010A 25186.51958223 -.00000312 00000+0 00000+0 0 9999 2 29045 0.2119 89.2469 0002406 29.6416 123.9500 1.00270469 70290
UTC large
Height (km)
Speed (km/s)
/
Latitude / Longitude
Inclination (degrees)
Orbital Period (minutes)
Azimuth
Elevation
Range (km)
Doppler Factor

Next 0 passes for location: London (51.5072 / 0.1276)

Sorry there are no passes over London.